www.pogodaiklimat.ru

Погода и климат >> Архив погоды >> Россия >> Коми >> Объячево


ПОГОДА в Объячеве

  • Прогноз погоды в Объячеве
  • Монитор погоды в Объячеве

АРХИВ ПОГОДЫ в Объячеве

Время (UTC), дата Ветер
(напр.,м/с)
 
Видим.   Явления Облачность Т
(С)
Тd
(С)
f
(%)
Тe
(С)
Тes
(С)
Комфортность P
(гПа)
Po
(гПа)
Тmin
(С)
Tmax
(С)
R
(мм)
R24
(мм)
S
(см)
06 10.07 ЮВ 2 20 км {ливн. осадки} 9/8 720 м
[Cb cap Ac trans]
+17.1 +14.9 87 +17 +19 991.3 973.8
09 10.07 ЮЗ 3 2000 м слаб. ливневой дождь 10/10 480 м
[Cb cap]
+16.4 +13.0 80 +16 +16 991.3 973.7
12 10.07 ЮВ 2 20 км {ливн. осадки} 8/5 630 м
[Cb cap Ci ing]
+17.5 +15.1 86 +18 +22 991.2 973.7
15 10.07 Ю 4 20 км в посл. час ливневой дождь {гроза} 8/4 600 м
[Cb cap Ac cuf]
+15.2 +13.4 89 +14 +14 991.0 973.3 +19.9 3
18 10.07 Ю 4 20 км {гроза, ливн. осадки} 9/5 300 м
[Cb cap Ac cuf]
+14.3 +12.8 91 +13 +13 991.0 973.3
21 10.07 Ю 3 20 км {ливн. осадки} 9/9 330 м
[Sc]
+13.5 +12.9 96 +12 +12 990.4 972.7
00 11.07 З 4 4000 м слаб. ливневой дождь 10/10 270 м
[Cb cap]
+10.7 +10.2 97 +8 +8 991.5 973.6
03 11.07 З 2 4000 м слаб. ливневой дождь 10/10 270 м
[Cb cap]
+9.5 +8.6 94 +8 +8 993.9 975.9 +9.3 2
06 11.07 З 3 20 км {ливн. осадки} 10/5 300 м
[Cb cap Ac cuf]
+10.6 +8.0 84 +9 +10 997.0 979.0 +9.0
09 11.07 З 3 20 км в посл. час ливневой дождь 9/4 600 м
[Cb cap Ac cuf]
+11.2 +8.4 83 +9 +12 999.8 981.8
12 11.07 ЮЗ 2 50 км {ливн. осадки} 8/4 600 м
[Cb cap Ac cuf Ci fib]
+13.9 +8.5 70 +13 +17 1001.1 983.2
15 11.07 Ю 3 50 км {ливн. осадки} 6/3 600 м
[Cb cap Ac trans]
+15.6 +8.5 63 +15 +16 1002.5 984.6 +16.6 1
18 11.07 ЮВ 1 20 км {ливн. осадки} 8/1 600 м
[Cb calv Ac trans Ci fib]
+11.5 +8.9 84 +11 +11 1004.3 986.2
21 11.07 штиль 0 20 км местами туман поземный 8/0
[Ac trans Cc]
+8.2 +7.6 96 +7 +7 1004.9 986.6
00 12.07 штиль 0 20 км местами туман поземный 9/0
[Ac trans]
+8.5 +7.7 95 +8 +8 1005.4 987.1
03 12.07 ЮВ 1 10 км слаб. дождь 10/0
[Ac As]
+11.1 +9.0 87 +11 +12 1005.0 986.9 +7.5 0.0
06 12.07 штиль 0 10 км слаб. ливневой дождь 9/9 600 м
[Cb cap]
+10.7 +10.3 97 +10 +11 1004.7 986.6
09 12.07 Ю 2 20 км 9/9 700 м
[Cb cap]
+16.8 +13.8 82 +17 +18 1004.6 986.9
12 12.07 ЮЗ 3 20 км в посл. час ливневой дождь 9/9 900 м
[Cb cap]
+17.9 +12.1 69 +18 +19 1006.0 988.3
15 12.07 ЮЗ 2 50 км 9/8 840 м
[Cb cap Ac cuf]
+16.9 +11.8 72 +17 +17 1007.5 989.7 +19.8 7
18 12.07 ЮЗ 1 20 км 4/1 600 м
[Sc diur, vesp Ci fib]
+13.3 +11.4 88 +13 +13 1009.3 991.2
21 12.07 С 1 20 км туман поземный 3/0
[Ac cast]
+11.3 +10.5 95 +11 +11 1009.7 991.5
00 13.07 СВ 1 20 км туман поземный 6/3 600 м
[Sc Ci fib]
+8.7 +8.5 99 +8 +8 1009.5 991.2
03 13.07 С 2 4000 м дымка 9/8 570 м
[Sc Ci fib]
+11.0 +10.6 97 +10 +10 1008.9 990.8 +8.6
06 13.07 СЗ 3 20 км 9/9 630 м
[Cb cap]
+14.2 +11.5 84 +13 +14 1007.1 989.1
09 13.07 С 3 20 км 9/9 660 м
[Cb cap]
+15.4 +11.7 79 +15 +16 1006.5 988.6
12 13.07 СВ 1 20 км 9/9 900 м
[Cb cap]
+15.2 +12.8 86 +16 +17 1007.2 989.3
15 13.07 Ю 1 20 км 6/5 1000 м
[Sc diur, vesp Ac cast]
+18.5 +13.8 74 +20 +21 1007.0 989.3 +19.0
18 13.07 В 1 20 км 3/0
[Ac trans]
+14.9 +13.1 89 +15 +15 1008.7 990.8
21 13.07 штиль 0 20 км туман поземный 1/0
[Ac trans]
+27.0 +24.1 84 +37 +37 очень
душно
1004.0 986.8
00 14.07 штиль 0 200 м туман ясно +9.3 +9.0 98 +8 +8 1010.2 991.9
03 14.07 штиль 0 20 км в посл. час туман 10/0
[Cs]
+10.9 +10.7 99 +10 +13 1010.1 991.9 +8.1
06 14.07 С 2 50 км {туман} 10/3 600 м
[Cu hum Ac trans Cs]
+17.4 +12.0 71 +18 +21 1008.5 990.8
09 14.07 С 2 50 км 10/6 1000 м
[Cb cap Cc]
+18.7 +10.3 58 +20 +24 1008.9 991.2
12 14.07 штиль 0 50 км 9/5 1000 м
[Cu Sc Ac trans Cc]
+19.4 +10.7 57 +20 +24 1008.8 991.1
15 14.07 ЮВ 1 50 км 8/4 1000 м
[Cb calv Ac trans Cc]
+20.1 +12.5 62 +23 +24 комфорт 1009.0 991.4 +20.3
18 14.07 ЮВ 1 20 км 5/3 600 м
[Sc diur, vesp Ac trans Ci fib]
+15.9 +12.6 81 +17 +17 1009.2 991.4
21 14.07 штиль 0 20 км туман поземный 4/3 600 м
[Sc diur, vesp As trans Ci fib]
+27.5 +23.1 77 +37 +37 очень
душно
1000.3 983.2
00 15.07 С 1 20 км туман поземный 3/0
[Ac trans Cs]
+9.5 +9.0 97 +9 +9 1010.6 992.3
03 15.07 штиль 0 20 км 8/0
[Ac trans Cs]
+11.0 +10.0 94 +10 +13 1011.0 992.7 +9.1
06 15.07 С 1 20 км 10/1 600 м
[Cu hum Cs]
+19.5 +13.9 70 +22 +31 комфорт 1009.8 992.2
09 15.07 С 2 20 км 10/8 960 м
[Cu med, cong Cs]
+21.1 +11.8 55 +23 +25 комфорт 1008.9 991.3
12 15.07 С 2 20 км 10/6 800 м
[Sc diur, vesp Ac As]
+20.7 +13.6 64 +24 +25 комфорт 1007.8 990.2
15 15.07 С 1 20 км 10/6 720 м
[Sc diur, vesp Ac As]
+20.0 +13.5 66 +23 +23 комфорт 1007.4 989.8 +22.0
18 15.07 С 1 20 км 9/4 600 м
[Cb cap Ac trans Cc]
+16.5 +12.3 76 +17 +17 1006.4 988.6
21 15.07 С 1 20 км 8/3 600 м
[Cb cap Ac trans]
+13.9 +12.1 89 +14 +14 1004.8 986.9
00 16.07 З 1 20 км 10/3 600 м
[Cb cap Ac As]
+13.4 +12.3 93 +14 +14 1004.3 986.4
03 16.07 З 2 20 км 9/3 1000 м
[Cu hum Ac trans Cc]
+13.9 +12.2 89 +13 +14 1004.5 986.6 +13.1
06 16.07 З 4 20 км 9/4 600 м
[Cu Sc Ac cast Cc]
+17.7 +12.3 71 +17 +20 1005.4 987.7
09 16.07 З 4 20 км 9/9 840 м
[Cb cap]
+20.8 +11.4 55 +23 +24 комфорт 1005.7 988.1
12 16.07 З 5
{12}
20 км 8/6 840 м
[Cb calv Cs]
+22.5 +9.5 44 +24 +26 комфорт 1007.1 989.6
15 16.07 З 2
{10}
20 км 6/3 600 м
[Cu med, cong Cs]
+21.7 +7.4 40 +23 +24 комфорт 1008.8 991.2 +23.1
18 16.07 З 1 20 км 3/0
[Cs]
+16.5 +10.0 65 +17 +17 1011.3 993.4
21 16.07 Ю 1 20 км 3/0
[Ci fib]
+12.3 +9.3 82 +12 +12 1013.2 995.0
00 17.07 штиль 0 20 км туман поземный ясно +9.0 +8.1 94 +8 +8 1014.8 996.4
03 17.07 штиль 0 20 км ясно +12.3 +9.8 85 +12 +15 1015.9 997.6 +8.6

 

Местоположение метеостанции Объячево (Коми, Россия): широта 60.37 долгота 49.65 высота над уровнем моря 152 м.

В архиве по умолчанию представлена погода в Объячеве за последнюю неделю. Архивные данные за месяц целиком и за предыдущие месяцы, начиная с января 2011 года, Вы можете получить, выбрав интересующий диапазон дат из раскрывающегося списка и нажав кнопку "Ввод!".


*Определитесь, кто Вы:
робот инопланетянин человек

Внимание! Время в таблицах - всемирное. Для получения местного времени необходимо прибавить поправку, которая равна 3 ч.

Смотрите также архив погоды в соседних городах и на ближайших метеорологических станциях:

Погода в Койгородке (Коми, Россия) (73 км)
Погода в Пустоши (Коми, Россия) (90 км)
Погода в Опарино (Кировская область, Россия) (95 км)
Погода в Лальске (Кировская область, Россия) (118 км)
Погода в Вилегодском (Архангельская область, Россия) (124 км)
Погода в Нагорске (Кировская область, Россия) (134 км)
Погода в Сыктывкаре (Коми, Россия) (158 км)
Погода в Усть-Черной (Пермский край, Россия) (164 км)
Погода в Слободчиково (Архангельская область, Россия) (171 км)
Погода в Белой Холунице (Кировская область, Россия) (184 км)

Пояснения к столбцам:

Ветер - указаны скорость ветра в м/с - средняя за 10 мин, порывы в срок и между сроками (в фигурных скобках) и направление, откуда дует ветер: С - северный, СВ - северо-восточный, В - восточный, ЮВ - юго-восточный, Ю - южный, ЮЗ - юго-западный, З - западный, СЗ - северо-западный.
Видимость - горизонтальная дальность видимости в метрах или километрах. При видимости от 1 до 10 км при отсутствии осадков обычно наблюдается дымка, при ухудшении видимости до 1 км и менее - туман. В сухую погоду видимость может ухудшаться дымом, пылью или мглою.
Явления - указаны атмосферные явления, наблюдавшиеся в срок или в последний час перед сроком; фигурными скобками обозначены явления, наблюдавшиеся между сроками (за 1-3 часа до срока); квадратными скобками обозначены град или гололедные отложения с указанием их диаметра в мм.
Облачность - указаны через наклонную черту общая и нижняя облачность в баллах и высота нижней границы облаков в метрах; квадратными скобками обозначены формы облаков: Ci - перистые, Cs - перисто-слоистые, Cc - перисто-кучевые, Ac - высококучевые, As - высокослоистые, Sc - слоисто-кучевые, Ns - слоисто-дождевые, Cu - кучевые, Cb - кучево-дождевые. Подробнее классификацию облаков см. в Атласе облаков (PDF).
T - Температура воздуха - температура, измеренная на высоте 2 м над землей.
Td - Температура точки росы - температура, при понижении до которой содержащийся в воздухе водяной пар достигнет насыщения.
f - Относительная влажность воздуха - влажноcть воздуха, измеренная на высоте 2 м над землей.
Te - Эффективная температура - температура, которую ощущает одетый по сезону человек в тени. Характеристика душности погоды. При расчете учитывается влияние влажности воздуха и скорости ветра на теплоощущения человека.
Tes - Эффективная температура на солнце - температура, которую ощущает человек, с поправкой на солнечный нагрев. Характеристика знойности погоды. Зависит от высоты солнца над горизонтом, облачности и скорости ветра. Ночью, в пасмурную погоду, а также при ветре 12 м/с и более поправка равна нулю.
P - Атмосферное давление - приведенное к уровню моря атмосферное давление.
Po - Атмосферное давление - измеренное на уровне метеостанции атмосферное давление.
Tmin - Минимальная температура - минимум температуры воздуха на высоте 2 м над землей.
Tmax - Максимальная температура - максимум температуры воздуха на высоте 2 м над землей.
R - Количество осадков - Количество выпавших осадков за период времени, мм. При наведении курсора мыши на число - период времени, за который выпало указанное количество осадков.
R24 - Количество осадков - Количество выпавших осадков за 24 часа, мм.
S - Снежный покров - Высота снежного покрова, см. При наведении курсора мыши на число - состояние снежного покрова и степень покрытия местности в баллах.